Regional Weather Roundup
Issued by NWS

Home | Current Version | Previous Version | Text Only | Print | Product List | Glossary Off
Versions: 1 2 3 4 5 6 7 8 9 10 11 12 13 14 15 16 17 18 19 20 21 22 23 24 25 26 27 28 29 30 31 32 33 34 35 36 37 38 39 40 41 42 43 44 45 46 47 48 49 50

000
ASUS43 KBIS 200710
RWRND

NORTH DAKOTA REGIONAL WEATHER ROUNDUP
NATIONAL WEATHER SERVICE BISMARCK ND
100 AM CST MON FEB 20 2017

NOTE: "FAIR" INDICATES FEW OR NO CLOUDS BELOW 12,000 FEET WITH NO
SIGNIFICANT WEATHER AND/OR OBSTRUCTIONS TO VISIBILITY.


NDZ001>003-009>011-017-200800-
NORTHWEST NORTH DAKOTA

CITY           SKY/WX    TMP DP  RH WIND       PRES   REMARKS
WILLISTON      CLOUDY    33  32  96 VRB3      29.61S FOG
MINOT          MOCLDY    33  31  92 W8        29.55S FOG
MINOT AFB      FOG       32  32  98 W5        29.56R VSB 3/4
$$

NDZ018>021-031>035-040>046-200800-
SOUTHWEST NORTH DAKOTA

CITY           SKY/WX    TMP DP  RH WIND       PRES   REMARKS
BISMARCK       MOCLDY    36  34  92 CALM      29.52S
DICKINSON      CLOUDY    36  34  92 NW10      29.55R
GARRISON         N/A     34  32  92 NW6       29.54R
HETTINGER ARPT PTCLDY    41  34  76 NW13      29.56R
$$

NDZ004>008-012>016-024-026-027-054-200800-
NORTHEAST NORTH DAKOTA

CITY           SKY/WX    TMP DP  RH WIND       PRES   REMARKS
GRAND FORKS    PTCLDY    41  36  82 SE16      29.58F
GRND FRKS AFB  PTCLDY    39  39  99 S13       29.58F
DEVILS LAKE    FOG       36  36 100 E3        29.55S VSB 1/4
$$

NDZ022-023-025-028>030-036>039-047>053-200800-
SOUTHEAST NORTH DAKOTA

CITY           SKY/WX    TMP DP  RH WIND       PRES   REMARKS
FARGO          CLOUDY    52  48  86 SE20G26   29.61S
JAMESTOWN      FAIR      41  41 100 S8        29.53S FOG
$$





USA.gov is the U.S. government's official web portal to all federal, state and local government web resources and services.